Regional Weather Roundup
Issued by NWS

Home | Current Version | Previous Version | Text Only | Print | Product List | Glossary Off
Versions: 1 2 3 4 5 6 7 8 9 10 11 12 13 14 15 16 17 18 19 20 21 22 23 24 25 26 27 28 29 30 31 32 33 34 35 36 37 38 39 40 41 42 43 44 45 46 47 48 49 50

000
ASUS45 KABQ 301601
RWRNM
NEW MEXICO REGIONAL WEATHER ROUNDUP
NATIONAL WEATHER SERVICE ALBUQUERQUE NM
1000 AM MDT THU MAR 30 2017

NOTE: "FAIR" MEANS FEW OR NO CLOUDS BELOW 12,000 FEET AGL WITH NO
       SIGNIFICANT WEATHER OR OBSTRUCTIONS TO VISION.

      THIS PRODUCT IS RELEASED AS TWO VERSIONS.  ONE VERSION NEAR
      THE TOP OF THE HOUR CONTAINING PRELIMINARY DATA FROM ALBUQUERQUE
      AND OTHER STATIONS.  A FINAL VERSION WITH ADDITIONAL DATA IS
      ISSUED ABOUT 10 MINUTES AFTER THE HOUR.

NMZ501-503-504-510>518-301700-
NORTHWEST PLATEAU/NORTHCENTRAL MOUNTAINS

CITY           SKY/WX    TMP DP  RH WIND       PRES   REMARKS
FARMINGTON     FAIR      46  24  42 E12       29.94F
LOS ALAMOS     FAIR      42  33  69 CALM      30.01S
SANTA FE       FAIR      47  35  63 SW8       29.99S
TAOS             N/A     41  30  65 W3        30.00F
ANGEL FIRE     FAIR      38  27  65 S7        29.99F WCI  32

$$
NMZ402-403-502-505>509-301700-
WESTCENTRAL MOUNTAINS/SOUTHWEST MOUNTAINS

CITY           SKY/WX    TMP DP  RH WIND       PRES   REMARKS
GALLUP         FAIR      51  23  33 MISG      30.01F
GRANTS         FAIR      46  23  40 SE7       30.04F
SILVER CITY    FAIR      59  25  27 NW14      30.06F

$$
NMZ407-409-411-412-301700-
SOUTHERN DESERTS

CITY           SKY/WX    TMP DP  RH WIND       PRES   REMARKS
DEMING         FAIR      57  32  38 SW9       30.04F
LAS CRUCES     FAIR      57  34  41 W12       30.04F
HOLLOMAN AFB   FAIR      56  37  47 S7        30.05F
ALAMOGORDO       N/A    N/A N/A N/A MISG        N/A
T OR C         FAIR      53  38  56 S7        30.01F

$$
NMZ519>523-301700-
CENTRAL VALLEYS/CENTRAL HIGHLANDS

CITY           SKY/WX    TMP DP  RH WIND       PRES   REMARKS
ALBUQUERQUE    FAIR      47  38  71 SW8       30.01S
DOUBLE EAGLE   MOSUNNY   46  37  71 S5        30.02
MORIARTY ARPT  FAIR      52  31  45 CALM      30.00F
CLINES CORNERS FAIR      42  30  62 W17       29.99F
BELEN          FAIR      49  34  55 CALM      30.02S
SOCORRO        FAIR      48  37  65 SE6       30.02S

$$
NMZ524>526-539-540-301700-
SOUTHCENTRAL MOUNTAINS

CITY           SKY/WX    TMP DP  RH WIND       PRES   REMARKS
RUIDOSO        NOT AVBL

$$
NMZ527>531-301700-
NORTHEAST HIGHLANDS/NORTHEAST PLAINS

CITY           SKY/WX    TMP DP  RH WIND       PRES   REMARKS
LAS VEGAS      FAIR      48  26  42 SW3       29.93S
RATON          FAIR      43  31  62 NE9       29.88F
CLAYTON        FAIR      61  31  32 NW13      29.85F

$$
NMZ532>537-301700-
EASTCENTRAL PLAINS

CITY           SKY/WX    TMP DP  RH WIND       PRES   REMARKS
TUCUMCARI      FAIR      56  40  55 W6        29.85F
CANNON AFB     FAIR      55  44  67 W20       29.88F
CLOVIS AIRPORT FAIR      55  39  54 W18       29.88F

$$
NMZ028-029-538-301700-
SOUTHEAST PLAINS

CITY           SKY/WX    TMP DP  RH WIND       PRES   REMARKS
ROSWELL        FAIR      54  41  61 E3          N/A
ARTESIA        FAIR      61  37  41 E6        29.93F
CARLSBAD       FAIR      59  35  40 VRB3      29.92F
HOBBS          SUNNY     64  32  29 SW16      29.94F


$$



USA.gov is the U.S. government's official web portal to all federal, state and local government web resources and services.